Hutchinson, MN

4:00 AM CDT on April 24, 2018 (GMT -0500)
Hutchinson Municipal-Butler

Weather History for KHCD - January, 2014

Change the Weather History Date:

Tuesday, January 7, 2014

  Actual Average Record
Temperature  
Mean Temperature -4 °F -  
Max Temperature 4 °F 15 °F 53 °F (2003)
Min Temperature -12 °F -1 °F -25 °F (1982)
Degree Days  
Heating Degree Days 69    
Moisture  
Dew Point -10 °F    
Average Humidity 73    
Maximum Humidity 80    
Minimum Humidity 64    
Precipitation  
Precipitation 0.00 in - - ()
Sea Level Pressure  
Sea Level Pressure 30.14 in    
Wind  
Wind Speed 6 mph (West)    
Max Wind Speed 10 mph    
Max Gust Speed -    
Visibility 10 miles    
Events      
Averages and records for this station are not official NWS values.
T = Trace of Precipitation, MM = Missing Value Source: NWS Daily Summary

Daily Weather History Graph

Daily Weather History Graph

Search for Another Location

Airport or City:

Astronomy

Jan. 07, 2014 Rise Set
Actual Time 7:54 AM CST 4:53 PM CST
Civil Twilight 7:21 AM CST 5:26 PM CST
Nautical Twilight 6:44 AM CST 6:03 PM CST
Astronomical Twilight 6:09 AM CST 6:38 PM CST
Moon 11:24 AM CST (1/7) No Moon Set
Length of Visible Light 10h 04m
Length of Day
8h 58m
Waxing Crescent, 46% of the Moon is Illuminated
Jan 7
Waxing Crescent
Jan 7
First Quarter
Jan 15
Full
Jan 23
Last Quarter
Jan 30
New

Hourly Weather History & Observations

Time (CST) Temp. Windchill Dew Point Humidity Pressure Visibility Wind Dir Wind Speed Gust Speed Precip Events Conditions
12:13 AM -12.1 °F -25.9 °F -18.4 °F 74% 30.15 in 10.0 mi WSW 5.8 mph - N/A   Clear
12:33 AM -11.9 °F -27.3 °F -17.7 °F 76% 30.13 in 10.0 mi WSW 6.9 mph - N/A   Clear
12:53 AM -11.7 °F -28.5 °F -17.5 °F 76% 30.13 in 10.0 mi WSW 8.1 mph - N/A   Clear
1:13 AM -11.6 °F -26.9 °F -17.5 °F 75% 30.12 in 10.0 mi West 6.9 mph - N/A   Clear
1:33 AM -11.7 °F -25.5 °F -17.3 °F 76% 30.11 in 10.0 mi WSW 5.8 mph - N/A   Clear
1:53 AM -12.1 °F -24.0 °F -17.9 °F 76% 30.11 in 10.0 mi WSW 4.6 mph - N/A   Clear
2:13 AM -12.1 °F -24.0 °F -17.9 °F 76% 30.12 in 10.0 mi WSW 4.6 mph - N/A   Clear
2:33 AM -11.9 °F -23.8 °F -17.7 °F 76% 30.12 in 10.0 mi SW 4.6 mph - N/A   Clear
2:53 AM -11.7 °F -21.3 °F -17.5 °F 76% 30.13 in 10.0 mi SW 3.5 mph - N/A   Clear
3:13 AM -12.1 °F -24.0 °F -17.9 °F 76% 30.12 in 10.0 mi SW 4.6 mph - N/A   Scattered Clouds
3:33 AM -11.7 °F -25.5 °F -17.5 °F 76% 30.11 in 10.0 mi SW 5.8 mph - N/A   Scattered Clouds
3:53 AM -11.6 °F -26.9 °F -17.5 °F 75% 30.12 in 10.0 mi SW 6.9 mph - N/A   Clear
4:13 AM -10.7 °F -24.2 °F -16.8 °F 74% 30.12 in 10.0 mi WSW 5.8 mph - N/A   Mostly Cloudy
4:33 AM -10.1 °F -21.7 °F -16.4 °F 74% 30.11 in 10.0 mi SW 4.6 mph - N/A   Mostly Cloudy
4:53 AM -9.4 °F -18.6 °F -15.7 °F 74% 30.10 in 10.0 mi SW 3.5 mph - N/A   Overcast
5:13 AM -8.7 °F -20.0 °F -15.3 °F 73% 30.09 in 10.0 mi WSW 4.6 mph - N/A   Overcast
5:33 AM -8.1 °F -22.7 °F -14.8 °F 73% 30.09 in 10.0 mi WSW 6.9 mph - N/A   Scattered Clouds
5:54 AM -7.8 °F -22.3 °F -14.3 °F 73% 30.08 in 10.0 mi SW 6.9 mph - N/A   Clear
6:13 AM -7.6 °F -18.8 °F -13.5 °F 75% 30.09 in 10.0 mi SW 4.6 mph - N/A   Clear
6:33 AM -7.6 °F -18.8 °F -13.9 °F 74% 30.11 in 10.0 mi WSW 4.6 mph - N/A   Scattered Clouds
6:53 AM -7.2 °F -18.3 °F -13.2 °F 75% 30.10 in 10.0 mi SSW 4.6 mph - N/A   Mostly Cloudy
7:13 AM -7.1 °F -15.9 °F -13.0 °F 75% 30.10 in 10.0 mi SW 3.5 mph - N/A   Mostly Cloudy
7:33 AM -6.7 °F -21.0 °F -13.0 °F 74% 30.10 in 10.0 mi SW 6.9 mph - N/A   Scattered Clouds
7:53 AM -6.3 °F -17.3 °F -12.6 °F 74% 30.10 in 10.0 mi SW 4.6 mph - N/A   Clear
8:13 AM -6.0 °F -14.7 °F -12.3 °F 74% 30.11 in 10.0 mi SSW 3.5 mph - N/A   Clear
8:33 AM -5.8 °F -14.5 °F -12.3 °F 74% 30.11 in 10.0 mi WSW 3.5 mph - N/A   Clear
8:53 AM -5.3 °F -16.0 °F -11.7 °F 74% 30.12 in 10.0 mi SW 4.6 mph - N/A   Clear
9:13 AM -4.9 °F -17.4 °F -11.2 °F 74% 30.12 in 10.0 mi WSW 5.8 mph - N/A   Clear
9:33 AM -4.0 °F -17.8 °F -11.2 °F 71% 30.13 in 10.0 mi WSW 6.9 mph - N/A   Clear
9:53 AM -2.9 °F -17.7 °F -10.3 °F 71% 30.14 in 10.0 mi WSW 8.1 mph - N/A   Clear
10:13 AM -2.2 °F -15.6 °F -9.8 °F 70% 30.14 in 10.0 mi WSW 6.9 mph - N/A   Clear
10:33 AM -1.3 °F -16.8 °F -9.4 °F 69% 30.14 in 10.0 mi West 9.2 mph - N/A   Clear
10:53 AM -0.8 °F -13.9 °F -9.2 °F 67% 30.14 in 10.0 mi West 6.9 mph - N/A   Clear
11:12 AM -0.4 °F -13.4 °F -8.5 °F 69% 30.14 in 10.0 mi West 6.9 mph - N/A   Clear
11:33 AM 0.5 °F -12.3 °F -8.5 °F 66% 30.13 in 10.0 mi West 6.9 mph - N/A   Clear
11:52 AM 1.0 °F -11.7 °F -7.8 °F 66% 30.12 in 10.0 mi West 6.9 mph - N/A   Clear
12:13 PM 1.4 °F -9.9 °F -7.6 °F 66% 30.11 in 10.0 mi West 5.8 mph - N/A   Clear
12:33 PM 1.9 °F -7.6 °F -6.7 °F 67% 30.11 in 10.0 mi WSW 4.6 mph - N/A   Clear
12:53 PM 2.3 °F - -7.1 °F 65% 30.11 in 10.0 mi Calm Calm - N/A   Clear
1:13 PM 3.2 °F -11.3 °F -6.2 °F 65% 30.11 in 10.0 mi West 9.2 mph - N/A   Clear
1:33 PM 3.7 °F -8.4 °F -5.3 °F 66% 30.11 in 10.0 mi West 6.9 mph - N/A   Clear
1:53 PM 3.6 °F -9.8 °F -5.4 °F 66% 30.11 in 10.0 mi West 8.1 mph - N/A   Clear
2:13 PM 4.1 °F -9.2 °F -4.7 °F 67% 30.11 in 10.0 mi West 8.1 mph - N/A   Clear
2:33 PM 4.5 °F -8.7 °F -5.1 °F 65% 30.12 in 10.0 mi WNW 8.1 mph - N/A   Clear
2:53 PM 4.6 °F -8.5 °F -5.3 °F 64% 30.13 in 10.0 mi West 8.1 mph - N/A   Clear
3:13 PM 4.1 °F -8.0 °F -4.9 °F 66% 30.14 in 10.0 mi WNW 6.9 mph - N/A   Clear
3:33 PM 3.7 °F -8.4 °F -4.5 °F 69% 30.15 in 10.0 mi WNW 6.9 mph - N/A   Clear
3:53 PM 4.1 °F -8.0 °F -4.2 °F 69% 30.15 in 10.0 mi West 6.9 mph - N/A   Clear
4:13 PM 4.1 °F -8.0 °F -4.2 °F 69% 30.15 in 10.0 mi WNW 6.9 mph - N/A   Clear
4:33 PM 3.9 °F -8.2 °F -4.2 °F 69% 30.16 in 10.0 mi West 6.9 mph - N/A   Clear
4:53 PM 3.2 °F -10.3 °F -4.9 °F 69% 30.16 in 10.0 mi West 8.1 mph - N/A   Clear
5:14 PM 3.0 °F -9.3 °F -4.0 °F 73% 30.17 in 10.0 mi West 6.9 mph - N/A   Clear
5:33 PM 2.8 °F -8.2 °F -4.0 °F 73% 30.17 in 10.0 mi West 5.8 mph - N/A   Clear
5:53 PM 2.3 °F -11.4 °F -4.0 °F 75% 30.17 in 10.0 mi West 8.1 mph - N/A   Clear
6:13 PM 1.4 °F -12.5 °F -4.9 °F 75% 30.17 in 10.0 mi West 8.1 mph - N/A   Clear
6:33 PM 0.9 °F -13.1 °F -4.9 °F 77% 30.17 in 10.0 mi West 8.1 mph - N/A   Clear
6:53 PM 0.7 °F -15.4 °F -5.3 °F 76% 30.18 in 10.0 mi WNW 10.4 mph - N/A   Clear
7:13 PM 0.7 °F -14.4 °F -5.4 °F 75% 30.19 in 10.0 mi West 9.2 mph - N/A   Clear
7:33 PM 0.5 °F -14.6 °F -5.8 °F 75% 30.20 in 10.0 mi West 9.2 mph - N/A   Clear
7:54 PM -0.4 °F -15.7 °F -6.3 °F 76% 30.21 in 10.0 mi West 9.2 mph - N/A   Clear
8:13 PM -0.6 °F -14.9 °F -6.9 °F 75% 30.20 in 10.0 mi West 8.1 mph - N/A   Clear
8:33 PM -1.3 °F -16.8 °F -7.2 °F 76% 30.20 in 10.0 mi West 9.2 mph - N/A   Clear
8:53 PM -1.3 °F -14.5 °F -7.6 °F 75% 30.20 in 10.0 mi WNW 6.9 mph - N/A   Clear
9:13 PM -2.6 °F -16.0 °F -8.3 °F 76% 30.21 in 10.0 mi West 6.9 mph - N/A   Clear
9:33 PM -2.6 °F -16.0 °F -8.0 °F 78% 30.22 in 10.0 mi WNW 6.9 mph - N/A   Clear
9:53 PM -2.2 °F -18.0 °F -7.8 °F 77% 30.22 in 10.0 mi NW 9.2 mph - N/A   Clear
10:14 PM -2.6 °F -16.0 °F -8.3 °F 76% 30.22 in 10.0 mi WNW 6.9 mph - N/A   Clear
10:33 PM -3.1 °F -16.7 °F -8.5 °F 78% 30.23 in 10.0 mi WNW 6.9 mph - N/A   Scattered Clouds
10:53 PM -4.2 °F -19.3 °F -9.6 °F 78% 30.24 in 10.0 mi West 8.1 mph - N/A   Scattered Clouds
11:14 PM -4.4 °F -16.7 °F -9.6 °F 78% 30.24 in 10.0 mi West 5.8 mph - N/A   Clear
11:33 PM -4.7 °F -15.4 °F -9.6 °F 80% 30.24 in 10.0 mi WNW 4.6 mph - N/A   Clear
11:52 PM -5.1 °F -17.6 °F -10.3 °F 78% 30.24 in 10.0 mi WNW 5.8 mph - N/A   Clear